Theta_e
310 310 309 310 311 313 314 317 317 319 321 323 321 319 317 315 315 311 308 307 308 310 311 311 309 309 309 313 311 311 317 318 317 316 314 314 315 315 315 314 313 311 324 325 325 324 324
308 308 309 309 308 308 311 311 312 316 320 322 323 321 318 317 315 314 310 308 307 310 311 311 309 309 314 311 310 318 320 318 316 315 313 313 314 314 315 315 317 320 321 321 322 322 324
307 307 308 308 309 308 305 307 308 311 315 320 321 322 321 318 316 315 312 308 307 309 311 311 309 309 314 309 310 317 315 315 315 317 313 313 314 316 316 318 318 320 322 322 323 323 321
306 306 306 307 307 308 308 306 307 308 311 316 319 320 321 320 317 315 314 309 307 309 311 310 310 310 311 309 313 317 318 318 318 317 317 317 317 316 317 317 315 317 318 323 321 321 322
305 306 306 306 307 307 308 308 305 309 307 310 317 319 320 321 318 316 315 309 307 309 311 310 310 312 316 313 315 317 319 318 317 317 317 318 317 316 316 317 314 314 317 321 323 321 320
304 305 305 305 305 306 306 307 307 307 309 305 312 316 319 321 319 316 315 307 309 315 313 312 312 310 309 316 317 317 318 317 316 317 317 317 315 316 314 314 318 318 317 318 321 319 321
306 303 304 304 305 305 306 306 307 306 308 306 306 312 316 319 320 316 314 308 311 316 313 314 311 308 309 316 318 316 316 316 317 317 318 317 316 317 317 317 319 320 320 319 318 315 321
302 304 304 303 304 304 305 306 307 307 304 307 306 307 314 319 320 316 312 310 310 312 313 314 315 314 314 316 319 317 316 315 318 318 318 318 318 317 320 319 321 321 321 320 318 316 318
301 300 302 304 303 303 304 305 305 307 306 305 307 305 312 318 319 315 310 309 312 314 313 317 317 318 318 318 320 319 315 316 317 318 318 318 319 319 320 321 321 320 321 320 320 316 317
299 298 299 301 304 302 302 303 304 305 305 305 308 305 309 318 316 311 312 315 314 315 315 317 323 320 319 319 315 316 316 316 318 318 317 318 318 320 320 320 320 321 319 319 319 315 317
299 299 298 299 301 302 301 303 303 305 305 305 308 304 308 317 311 312 317 313 315 316 311 313 321 318 318 313 315 314 316 315 317 319 318 318 320 320 320 319 318 319 319 320 320 319 318
299 299 298 299 299 300 301 301 302 303 304 305 308 305 308 315 315 316 312 309 318 324 318 319 320 319 316 314 315 315 315 314 315 318 319 316 317 318 317 319 318 319 321 319 318 319 320
300 299 299 298 299 300 301 300 302 302 304 305 307 307 309 314 313 315 314 318 326 325 316 322 321 316 317 314 314 316 314 314 314 316 318 318 319 318 320 320 318 318 318 319 320 320 321
301 300 299 298 298 299 301 300 301 302 303 304 306 309 312 312 315 313 317 325 324 319 320 321 317 315 314 315 315 316 313 313 313 314 314 317 318 318 318 319 319 321 318 319 322 321 319
302 301 299 298 298 299 298 301 299 302 302 303 305 307 308 313 314 313 318 325 318 319 321 314 315 315 315 316 315 315 313 312 312 312 315 318 319 321 321 320 317 321 322 320 321 318 321
303 302 300 298 298 299 299 300 299 300 301 303 306 307 308 311 315 312 318 321 320 319 321 321 316 315 315 315 316 315 314 314 314 312 313 316 319 321 321 321 319 318 319 322 320 320 319
304 302 301 299 298 299 299 299 300 299 301 303 306 308 309 312 314 313 317 316 318 317 318 323 323 322 316 315 315 315 315 315 313 314 313 317 316 317 321 320 319 320 319 318 318 316 319
304 303 301 299 298 299 298 298 299 298 301 304 306 308 311 312 316 315 314 316 315 316 315 320 321 323 322 315 315 315 316 316 313 316 315 317 315 316 319 319 319 317 317 317 317 318 317
304 303 301 299 298 299 298 297 299 298 301 304 306 308 312 312 317 316 313 314 316 316 316 318 322 321 320 316 316 316 316 316 317 316 318 318 317 318 318 317 319 321 317 318 317 313 317
304 303 301 300 299 298 299 298 298 298 298 304 306 309 314 313 314 315 314 315 316 316 316 317 319 320 322 321 318 317 318 321 319 318 317 316 317 318 319 318 317 320 319 316 316 316 316
303 303 301 300 299 298 299 298 297 296 296 301 305 308 312 314 314 316 313 313 316 318 316 315 316 318 321 322 318 318 322 321 320 316 318 316 319 317 316 316 317 318 318 317 317 316 317
304 304 301 300 299 298 298 298 298 296 296 299 305 311 312 312 313 315 314 313 315 315 315 316 316 320 316 320 319 318 322 320 320 319 318 317 316 316 318 316 316 319 317 316 316 317 316
304 304 301 300 299 298 298 298 296 296 298 299 304 305 310 313 314 314 314 313 313 314 315 314 314 317 316 320 319 316 317 318 318 318 317 317 317 314 317 314 315 315 314 315 316 315 315
304 303 301 300 299 298 298 297 298 298 298 303 303 306 314 312 314 313 313 313 313 313 314 315 313 314 315 317 316 316 317 319 319 319 317 317 315 310 313 312 315 315 314 314 314 312 310
305 303 301 300 299 298 298 298 298 298 297 301 303 306 313 309 313 315 313 312 312 312 314 313 314 311 315 320 318 320 316 319 319 318 320 317 312 312 313 315 315 318 315 312 311 312 312
304 302 300 299 298 297 298 298 298 298 299 300 304 305 308 314 314 314 314 313 312 313 313 313 312 320 319 318 315 319 321 322 323 318 315 314 312 314 308 313 316 316 314 311 309 311 312
302 301 300 299 298 297 298 298 299 299 301 300 303 306 306 312 313 315 316 315 313 314 314 314 321 323 317 310 313 313 317 319 319 318 314 312 310 313 306 308 313 311 312 310 311 311 311
301 300 299 298 297 298 298 298 298 298 299 300 300 305 305 309 309 314 315 315 315 315 316 316 322 319 315 316 315 314 311 317 316 316 314 317 315 310 305 305 318 311 312 311 309 313 314
299 299 298 298 298 298 298 299 299 299 298 298 300 303 304 305 308 307 308 311 314 314 314 317 317 319 318 317 313 314 315 310 314 318 315 316 314 315 314 314 312 312 311 311 310 312 313
Wind_Speed
18 20 21 20 20 20 22 22 20 18 19 19 17 17 17 17 18 19 20 20 21 22 22 22 20 17 8 4 8 4 7 5 3 8 5 3 2 3 1 4 4 2 2 3 6 8 3
20 21 23 23 24 22 20 20 22 20 17 17 19 18 18 18 19 20 20 21 21 22 22 20 17 13 3 4 4 4 3 2 1 8 4 6 5 4 4 4 2 2 5 3 4 7 7
23 21 24 24 23 23 23 21 19 20 19 17 20 19 19 19 20 21 22 22 22 23 22 20 13 6 1 14 3 5 13 14 15 14 4 6 3 3 2 5 3 4 5 5 2 2 4
27 25 23 25 25 24 23 21 20 18 20 19 19 21 20 20 20 21 23 24 24 24 24 16 9 2 7 7 7 15 14 13 12 16 18 7 4 4 2 1 5 5 4 1 5 1 4
30 28 26 26 26 25 25 24 21 19 18 20 17 19 21 20 19 21 24 26 26 26 17 9 3 1 9 12 9 10 14 9 5 7 8 10 1 3 4 3 4 2 3 1 6 3 2
32 31 31 29 28 27 27 25 24 21 20 18 19 19 20 19 18 20 24 27 22 8 1 2 1 3 7 2 5 11 9 10 2 3 3 4 4 2 3 3 2 2 3 2 4 4 2
32 34 34 31 29 28 26 27 26 23 22 19 19 19 18 18 16 18 22 11 5 1 4 8 5 4 5 11 6 2 2 7 3 4 3 2 4 1 3 5 5 3 4 4 6 6 5
38 34 33 35 32 30 29 26 25 25 22 21 19 19 17 14 15 16 16 2 4 2 8 13 18 12 19 4 4 5 5 5 4 5 1 3 3 5 1 4 1 3 3 7 9 7 8
38 38 36 35 36 34 29 26 27 26 23 21 19 18 17 12 14 14 10 10 8 13 4 8 7 6 6 13 7 7 6 5 5 6 5 6 5 4 3 2 5 5 4 6 9 2 2
43 42 40 42 38 36 34 31 28 27 27 21 20 17 16 10 8 8 6 4 19 10 2 6 5 7 7 8 5 13 7 6 2 9 6 5 3 3 2 5 4 4 4 7 5 2 3
45 44 42 39 36 35 35 32 31 26 24 22 20 16 16 15 3 4 3 10 7 2 3 3 4 9 8 10 3 6 9 3 8 6 6 6 4 5 6 10 6 7 5 4 1 1 3
47 46 44 41 37 37 37 34 32 29 28 24 20 17 16 17 21 23 15 17 4 3 7 4 6 6 6 3 2 2 5 3 3 5 2 5 3 6 6 1 5 3 2 5 5 2 2
49 47 46 45 39 38 39 36 35 32 28 25 21 19 21 15 6 11 10 2 2 5 5 4 5 6 6 6 3 2 6 6 6 4 4 0 3 2 2 2 1 4 5 3 4 4 4
51 48 46 45 42 38 36 37 35 32 30 27 22 17 21 29 19 5 2 3 8 6 7 5 2 5 7 5 5 6 5 6 2 4 3 5 5 4 1 3 3 3 5 5 3 3 4
52 50 47 45 42 39 43 36 37 30 30 26 22 21 19 23 23 13 1 10 7 6 4 4 3 5 4 4 6 3 7 7 8 8 7 5 4 3 2 1 5 1 1 1 5 3 2
57 52 50 47 43 40 39 37 36 33 32 29 22 13 19 21 25 10 4 17 7 6 5 4 8 6 8 7 6 7 7 4 5 10 5 7 1 2 2 2 2 3 7 3 2 3 3
61 55 51 49 46 42 38 40 35 36 32 30 18 4 15 23 21 4 11 11 15 15 3 3 4 2 7 8 9 5 7 5 7 4 4 5 5 4 1 5 7 2 2 1 4 4 4
60 59 54 51 49 44 42 41 35 40 33 31 10 7 28 38 8 5 14 8 6 18 9 4 4 4 4 7 7 9 10 8 7 9 9 6 6 6 9 3 4 4 7 6 4 4 2
60 62 58 54 52 48 45 42 38 38 40 31 6 7 29 31 13 14 8 14 9 10 7 7 5 5 4 4 3 7 8 6 7 8 9 7 1 2 6 4 2 5 5 4 4 4 6
61 64 61 57 54 51 48 49 46 37 46 27 5 8 6 10 15 20 20 16 21 12 13 3 3 3 2 3 3 4 6 2 5 8 1 9 4 7 7 8 3 3 4 5 5 3 4
62 65 63 59 56 54 52 51 51 45 45 35 6 10 7 12 22 18 21 16 23 15 14 16 5 8 2 3 2 4 3 2 3 5 4 4 6 5 4 4 4 4 4 5 6 6 6
63 65 65 61 58 56 54 54 52 54 48 31 9 6 6 3 18 24 20 22 26 22 9 9 11 7 13 10 7 5 6 4 5 2 5 1 4 3 3 2 3 3 6 5 4 3 6
62 65 66 62 60 58 55 55 56 58 46 17 18 2 5 10 19 21 27 22 24 21 18 16 20 13 10 13 8 11 7 3 6 10 6 6 6 4 5 1 3 5 8 8 6 6 6
58 67 67 63 60 58 56 55 55 53 50 22 28 3 4 12 14 23 23 18 24 26 19 19 22 12 5 5 4 4 6 7 6 5 3 7 5 3 2 2 1 7 3 4 6 3 5
57 67 65 62 59 57 55 53 50 53 49 46 24 7 2 3 15 15 20 24 17 18 18 20 7 15 3 4 2 1 5 4 3 6 3 2 6 3 4 4 5 5 4 7 7 5 2
59 67 64 61 59 56 53 51 51 48 47 39 13 23 0 2 13 8 22 20 18 16 10 16 9 1 4 4 3 6 5 6 4 3 5 5 6 5 3 5 7 7 3 3 5 4 5
65 64 61 59 57 53 50 48 48 48 37 40 6 14 4 3 3 13 12 16 13 11 8 5 7 3 3 2 3 4 4 5 7 10 6 3 3 5 3 3 7 7 6 3 5 7 7
64 61 58 56 53 50 48 46 43 43 36 36 12 15 4 3 4 3 4 7 11 14 10 5 5 2 3 4 4 4 3 5 4 6 8 7 7 3 3 3 6 6 4 9 6 2 5
58 56 54 51 49 47 45 40 40 40 34 35 10 20 8 2 3 8 16 18 12 16 9 5 5 6 5 4 1 3 2 3 2 3 1 3 7 6 9 6 4 3 4 3 6 7 5
Wind_Direction
283 281 277 278 274 269 264 261 270 271 266 276 283 289 295 304 311 317 318 318 318 322 326 329 330 337 351 337 255 313 299 318 166 178 211 174 115 151 237 265 295 240 25 76 134 127 121
277 277 279 277 277 276 275 271 266 268 269 270 278 284 291 299 305 312 316 316 314 318 323 325 327 337 14 289 272 332 77 4 258 219 212 177 189 196 265 259 6 311 82 77 128 183 169
276 273 275 277 281 283 279 275 273 264 267 265 270 279 287 294 301 308 313 313 311 313 316 317 319 340 264 240 207 209 284 277 279 244 222 218 206 143 260 321 2 137 56 14 347 209 217
275 273 271 275 274 279 282 276 271 273 261 264 266 271 280 289 297 305 310 310 309 308 306 304 304 349 250 271 283 266 263 264 269 252 248 254 251 223 178 336 24 61 50 105 255 229 261
270 271 270 268 270 272 274 278 272 270 268 257 260 269 272 282 294 303 309 311 308 303 293 275 284 142 266 301 263 261 242 239 269 271 237 263 241 213 27 73 36 20 121 235 321 72 329
267 268 268 268 270 268 270 274 275 266 269 266 255 260 272 278 292 303 309 315 307 308 162 171 210 322 272 305 300 293 253 227 271 58 24 52 51 41 36 84 156 4 51 298 241 292 75
271 264 266 264 265 267 269 269 272 275 268 271 262 254 268 274 289 302 316 337 340 291 204 208 200 250 279 326 305 217 249 121 114 60 144 349 64 247 245 163 141 92 291 308 280 234 171
265 269 260 261 262 263 263 264 268 271 272 266 268 257 258 271 283 295 306 271 251 8 300 234 245 244 254 324 315 288 167 136 146 187 102 21 223 192 345 117 58 342 298 288 290 276 172
263 261 267 260 257 259 260 260 260 265 268 261 265 262 254 266 276 287 263 252 294 311 271 280 212 212 210 162 209 260 152 163 152 184 181 179 238 122 126 241 210 249 231 271 239 19 340
256 260 261 259 252 253 255 255 255 259 259 257 257 260 245 252 275 246 250 172 344 164 309 269 227 247 171 153 234 218 187 145 166 194 142 225 232 185 170 247 155 299 263 243 281 142 196
253 251 255 257 261 247 249 249 250 248 254 252 250 254 235 221 236 217 173 319 352 131 328 234 185 162 160 161 180 220 170 76 171 182 122 246 183 174 207 229 146 229 262 263 188 168 107
248 248 249 251 252 257 244 248 247 243 246 247 241 245 232 237 234 245 278 321 134 67 249 286 144 157 142 206 259 99 148 95 159 136 194 219 189 161 226 321 189 172 160 37 44 56 35
243 242 243 244 247 246 243 243 242 239 238 242 236 242 230 222 230 248 267 259 136 212 313 226 179 153 181 174 208 157 144 163 156 112 212 74 234 225 148 316 62 98 64 345 359 15 221
240 237 238 241 240 240 239 236 237 234 232 235 230 232 228 222 215 207 259 161 211 218 253 309 160 108 183 154 230 182 147 187 232 116 129 174 304 181 149 193 199 71 142 157 227 211 265
237 234 231 235 234 233 239 228 233 228 229 228 226 232 235 230 215 225 203 212 197 213 224 252 70 131 235 207 158 152 182 187 196 176 156 142 268 308 244 248 152 188 22 111 98 11 50
234 230 227 227 228 226 227 231 226 229 221 221 212 220 231 216 214 160 221 221 203 221 360 345 203 175 179 202 159 153 178 205 216 187 168 197 182 198 296 37 1 160 154 62 17 185 226
230 226 223 222 222 219 218 226 219 218 210 209 189 210 210 190 181 169 214 209 223 259 310 319 322 297 210 176 180 177 198 238 201 185 137 138 127 266 114 182 200 141 190 153 127 147 171
227 220 218 217 216 213 209 209 210 216 208 200 178 210 168 169 187 206 215 193 229 243 258 298 301 254 234 196 176 188 199 208 172 152 163 202 150 187 207 182 164 187 193 146 128 238 182
227 214 212 211 211 210 205 204 203 211 207 193 192 210 169 169 199 210 188 204 228 230 203 209 241 219 357 211 176 193 201 221 159 155 161 181 198 79 343 16 49 224 193 168 119 84 198
224 212 207 206 207 205 200 199 205 208 211 205 186 184 170 193 219 200 188 194 214 236 251 287 294 289 248 277 250 191 198 192 159 175 187 112 137 165 193 211 177 197 201 170 142 125 203
218 207 203 201 201 200 197 194 195 209 210 208 204 210 184 193 206 205 187 193 196 217 204 197 260 231 229 315 267 191 152 134 8 147 101 126 163 159 222 180 188 213 239 178 184 211 163
212 204 196 196 196 195 194 191 194 200 210 213 184 205 169 220 191 202 192 201 199 212 172 200 220 189 219 221 214 231 153 182 185 198 141 216 182 133 139 106 62 243 244 252 239 210 254
205 198 190 191 191 191 191 191 196 203 193 210 215 225 222 199 186 188 209 197 201 207 215 233 208 220 223 226 212 236 229 208 196 159 169 146 136 117 226 86 64 330 217 219 235 220 190
199 190 187 186 186 188 191 193 195 200 195 216 195 142 218 194 186 205 189 197 201 213 212 210 233 223 237 116 124 41 57 69 78 46 118 136 103 78 181 49 334 242 206 205 204 265 256
199 184 181 180 181 185 190 192 192 198 201 214 205 170 256 174 194 188 190 198 207 222 222 227 225 231 211 87 53 97 355 40 23 35 32 87 123 107 142 193 293 287 210 152 171 237 213
187 174 173 176 178 183 188 189 192 193 205 194 250 199 21 217 204 148 186 189 201 211 214 222 240 107 94 129 140 180 192 167 176 77 42 65 53 115 134 148 212 237 232 148 108 249 192
169 168 169 171 174 182 184 186 186 186 192 192 227 200 183 292 252 165 181 191 193 192 209 170 170 164 110 150 141 164 225 176 157 159 176 57 21 152 122 193 285 248 202 103 126 236 163
158 161 164 167 174 177 180 183 186 187 190 192 216 171 141 278 288 336 168 162 192 208 192 153 119 237 92 134 168 193 147 212 117 166 172 160 144 178 84 73 276 179 94 166 203 72 129
149 153 158 166 170 173 175 176 173 177 188 187 220 182 165 294 276 293 278 275 238 213 182 182 184 162 173 124 197 118 143 75 163 201 135 192 181 177 179 208 235 218 220 190 154 141 149